Time,TemperatureF,DewpointF,PressureIn,WindDirection,WindDirectionDegrees,WindSpeedMPH,WindSpeedGustMPH,Humidity,HourlyPrecipIn,Conditions,Clouds,dailyrainin,SoftwareType,DateUTC
2013-04-23 00:00:00,44.6,33.0,30.45,ENE,61,3.0,0.0,63,0.00,,,0.00,oem by Ross Wheeler,2013-04-23 04:00:00,
2013-04-23 00:05:00,44.4,33.0,30.45,NE,37,2.0,0.0,64,0.00,,,0.00,oem by Ross Wheeler,2013-04-23 04:05:00,
2013-04-23 00:10:00,44.3,33.0,30.45,ENE,73,5.0,0.0,65,0.00,,,0.00,oem by Ross Wheeler,2013-04-23 04:10:00,
2013-04-23 00:15:00,44.3,34.0,30.44,East,79,4.0,0.0,66,0.00,,,0.00,oem by Ross Wheeler,2013-04-23 04:15:00,
2013-04-23 00:25:00,44.1,33.0,30.44,East,92,2.0,0.0,65,0.00,,,0.00,oem by Ross Wheeler,2013-04-23 04:25:00,
2013-04-23 00:30:00,44.1,33.0,30.44,East,80,3.0,0.0,66,0.00,,,0.00,oem by Ross Wheeler,2013-04-23 04:30:00,
2013-04-23 00:35:00,44.0,33.0,30.44,ENE,65,0.0,0.0,65,0.00,,,0.00,oem by Ross Wheeler,2013-04-23 04:35:00,
2013-04-23 00:45:00,44.0,32.0,30.44,East,83,1.0,0.0,64,0.00,,,0.00,oem by Ross Wheeler,2013-04-23 04:45:00,
2013-04-23 00:55:00,44.0,32.0,30.44,ENE,68,2.0,0.0,63,0.00,,,0.00,oem by Ross Wheeler,2013-04-23 04:55:00,
2013-04-23 01:00:00,44.0,32.0,30.44,ENE,66,2.0,0.0,64,0.00,,,0.00,oem by Ross Wheeler,2013-04-23 05:00:00,
2013-04-23 01:05:00,44.0,32.0,30.44,NE,55,0.0,0.0,64,0.00,,,0.00,oem by Ross Wheeler,2013-04-23 05:05:00,
2013-04-23 01:10:00,43.8,33.0,30.44,East,80,1.0,0.0,65,0.00,,,0.00,oem by Ross Wheeler,2013-04-23 05:10:00,
2013-04-23 01:15:00,43.7,33.0,30.43,NNE,27,0.0,0.0,65,0.00,,,0.00,oem by Ross Wheeler,2013-04-23 05:15:00,
2013-04-23 01:25:00,43.5,32.0,30.43,East,79,1.0,0.0,65,0.00,,,0.00,oem by Ross Wheeler,2013-04-23 05:25:00,
2013-04-23 01:30:00,43.5,32.0,30.43,NNE,27,3.0,0.0,65,0.00,,,0.00,oem by Ross Wheeler,2013-04-23 05:30:00,
2013-04-23 01:40:00,43.4,33.0,30.43,NE,54,2.0,0.0,66,0.00,,,0.00,oem by Ross Wheeler,2013-04-23 05:40:00,
2013-04-23 01:45:00,43.4,33.0,30.43,ENE,58,3.0,0.0,67,0.00,,,0.00,oem by Ross Wheeler,2013-04-23 05:45:00,
2013-04-23 01:55:00,43.1,33.0,30.43,NNE,31,2.0,0.0,68,0.00,,,0.00,oem by Ross Wheeler,2013-04-23 05:55:00,
2013-04-23 02:00:00,43.1,33.0,30.42,NE,45,3.0,0.0,68,0.00,,,0.00,oem by Ross Wheeler,2013-04-23 06:00:00,
2013-04-23 02:10:00,42.8,32.0,30.42,NE,51,2.0,0.0,67,0.00,,,0.00,oem by Ross Wheeler,2013-04-23 06:10:00,
2013-04-23 02:15:00,42.7,33.0,30.42,ENE,65,2.0,0.0,68,0.00,,,0.00,oem by Ross Wheeler,2013-04-23 06:15:00,
2013-04-23 02:25:00,42.5,33.0,30.42,NNE,17,2.0,0.0,69,0.00,,,0.00,oem by Ross Wheeler,2013-04-23 06:25:00,
2013-04-23 02:30:00,42.4,32.0,30.41,NNE,31,2.0,0.0,68,0.00,,,0.00,oem by Ross Wheeler,2013-04-23 06:30:00,
2013-04-23 02:40:00,42.1,32.0,30.41,NE,54,3.0,0.0,68,0.00,,,0.00,oem by Ross Wheeler,2013-04-23 06:40:00,
2013-04-23 02:45:00,42.0,32.0,30.41,ENE,63,3.0,0.0,68,0.00,,,0.00,oem by Ross Wheeler,2013-04-23 06:45:00,
2013-04-23 02:55:00,42.0,32.0,30.41,ENE,62,2.0,0.0,69,0.00,,,0.00,oem by Ross Wheeler,2013-04-23 06:55:00,
2013-04-23 03:00:00,41.8,32.0,30.40,East,86,3.0,0.0,69,0.00,,,0.00,oem by Ross Wheeler,2013-04-23 07:00:00,
2013-04-23 03:10:00,42.0,32.0,30.40,ENE,63,1.0,0.0,69,0.00,,,0.00,oem by Ross Wheeler,2013-04-23 07:10:00,
2013-04-23 03:15:00,42.0,32.0,30.39,East,79,1.0,0.0,69,0.00,,,0.00,oem by Ross Wheeler,2013-04-23 07:15:00,
2013-04-23 03:25:00,42.0,33.0,30.39,NE,38,2.0,0.0,71,0.00,,,0.00,oem by Ross Wheeler,2013-04-23 07:25:00,
2013-04-23 03:30:00,42.0,33.0,30.38,ENE,58,5.0,0.0,70,0.00,,,0.00,oem by Ross Wheeler,2013-04-23 07:30:00,
2013-04-23 03:40:00,41.8,33.0,30.38,NNE,21,2.0,0.0,71,0.00,,,0.00,oem by Ross Wheeler,2013-04-23 07:40:00,
2013-04-23 03:45:00,41.7,33.0,30.38,North,7,6.0,0.0,71,0.00,,,0.00,oem by Ross Wheeler,2013-04-23 07:45:00,
2013-04-23 03:55:00,41.4,33.0,30.38,ENE,59,4.0,0.0,71,0.00,,,0.00,oem by Ross Wheeler,2013-04-23 07:55:00,
2013-04-23 04:00:00,41.3,33.0,30.38,North,10,3.0,0.0,72,0.00,,,0.00,oem by Ross Wheeler,2013-04-23 08:00:00,
2013-04-23 04:10:00,41.0,33.0,30.38,East,83,4.0,0.0,73,0.00,,,0.00,oem by Ross Wheeler,2013-04-23 08:10:00,
2013-04-23 04:15:00,40.8,33.0,30.38,ENE,66,2.0,0.0,73,0.00,,,0.00,oem by Ross Wheeler,2013-04-23 08:15:00,
2013-04-23 04:25:00,40.7,33.0,30.38,ENE,62,3.0,0.0,73,0.00,,,0.00,oem by Ross Wheeler,2013-04-23 08:25:00,
2013-04-23 04:30:00,40.7,33.0,30.37,NNE,20,2.0,0.0,74,0.00,,,0.00,oem by Ross Wheeler,2013-04-23 08:30:00,
2013-04-23 04:40:00,40.5,33.0,30.37,NE,39,3.0,0.0,75,0.00,,,0.00,oem by Ross Wheeler,2013-04-23 08:40:00,
2013-04-23 04:45:00,40.5,33.0,30.37,NNE,25,2.0,0.0,75,0.00,,,0.00,oem by Ross Wheeler,2013-04-23 08:45:00,
2013-04-23 04:55:00,40.4,33.0,30.37,ENE,58,4.0,0.0,75,0.00,,,0.00,oem by Ross Wheeler,2013-04-23 08:55:00,
2013-04-23 05:00:00,40.5,33.0,30.36,NE,48,3.0,0.0,75,0.00,,,0.00,oem by Ross Wheeler,2013-04-23 09:00:00,
2013-04-23 05:10:00,40.7,33.0,30.36,NE,35,1.0,0.0,75,0.00,,,0.00,oem by Ross Wheeler,2013-04-23 09:10:00,
2013-04-23 05:15:00,40.8,33.0,30.36,NE,44,1.0,0.0,75,0.00,,,0.00,oem by Ross Wheeler,2013-04-23 09:15:00,
2013-04-23 05:25:00,41.0,33.0,30.36,NE,35,3.0,0.0,74,0.00,,,0.00,oem by Ross Wheeler,2013-04-23 09:25:00,
2013-04-23 05:30:00,41.1,33.0,30.36,NE,44,3.0,0.0,74,0.00,,,0.00,oem by Ross Wheeler,2013-04-23 09:30:00,
2013-04-23 05:40:00,41.3,34.0,30.36,NNE,21,3.0,0.0,74,0.00,,,0.00,oem by Ross Wheeler,2013-04-23 09:40:00,
2013-04-23 05:45:00,41.3,34.0,30.36,NNE,27,3.0,0.0,74,0.00,,,0.00,oem by Ross Wheeler,2013-04-23 09:45:00,
2013-04-23 05:55:00,41.3,33.0,30.36,NNE,18,2.0,0.0,73,0.00,,,0.00,oem by Ross Wheeler,2013-04-23 09:55:00,
2013-04-23 06:00:00,41.1,33.0,30.35,NE,56,2.0,0.0,73,0.00,,,0.00,oem by Ross Wheeler,2013-04-23 10:00:00,
2013-04-23 06:10:00,41.1,33.0,30.35,NNE,25,1.0,0.0,73,0.00,,,0.00,oem by Ross Wheeler,2013-04-23 10:10:00,
2013-04-23 06:15:00,41.1,33.0,30.35,North,8,1.0,0.0,73,0.00,,,0.00,oem by Ross Wheeler,2013-04-23 10:15:00,
2013-04-23 06:25:00,41.1,33.0,30.35,North,354,3.0,0.0,73,0.00,,,0.00,oem by Ross Wheeler,2013-04-23 10:25:00,
2013-04-23 06:30:00,41.1,33.0,30.35,NE,39,2.0,0.0,72,0.00,,,0.00,oem by Ross Wheeler,2013-04-23 10:30:00,
2013-04-23 06:40:00,41.1,32.0,30.35,NNE,24,2.0,0.0,71,0.00,,,0.00,oem by Ross Wheeler,2013-04-23 10:40:00,
2013-04-23 06:45:00,41.1,33.0,30.35,North,6,2.0,0.0,72,0.00,,,0.00,oem by Ross Wheeler,2013-04-23 10:45:00,
2013-04-23 06:55:00,41.1,33.0,30.35,NNE,18,3.0,0.0,72,0.00,,,0.00,oem by Ross Wheeler,2013-04-23 10:55:00,
2013-04-23 07:00:00,41.3,33.0,30.35,NNE,27,2.0,0.0,72,0.00,,,0.00,oem by Ross Wheeler,2013-04-23 11:00:00,
2013-04-23 07:10:00,41.3,33.0,30.35,NE,44,2.0,0.0,71,0.00,,,0.00,oem by Ross Wheeler,2013-04-23 11:10:00,
2013-04-23 07:15:00,41.3,33.0,30.35,NE,41,0.0,0.0,71,0.00,,,0.00,oem by Ross Wheeler,2013-04-23 11:15:00,
2013-04-23 07:25:00,41.4,33.0,30.35,NNE,14,2.0,0.0,71,0.00,,,0.00,oem by Ross Wheeler,2013-04-23 11:25:00,
2013-04-23 07:30:00,41.4,33.0,30.35,NNE,20,1.0,0.0,71,0.00,,,0.00,oem by Ross Wheeler,2013-04-23 11:30:00,
2013-04-23 07:40:00,41.5,33.0,30.35,NNE,24,3.0,0.0,71,0.00,,,0.00,oem by Ross Wheeler,2013-04-23 11:40:00,
2013-04-23 07:45:00,41.7,33.0,30.34,NNE,23,4.0,0.0,71,0.00,,,0.00,oem by Ross Wheeler,2013-04-23 11:45:00,
2013-04-23 07:55:00,41.7,33.0,30.34,NE,38,4.0,0.0,71,0.00,,,0.00,oem by Ross Wheeler,2013-04-23 11:55:00,
2013-04-23 08:00:00,41.8,33.0,30.34,NNE,27,5.0,0.0,71,0.00,,,0.00,oem by Ross Wheeler,2013-04-23 12:00:00,
2013-04-23 08:10:00,42.0,33.0,30.34,NNE,18,2.0,0.0,71,0.00,,,0.00,oem by Ross Wheeler,2013-04-23 12:10:00,
2013-04-23 08:15:00,42.0,33.0,30.34,NE,34,2.0,0.0,71,0.00,,,0.00,oem by Ross Wheeler,2013-04-23 12:15:00,
2013-04-23 08:25:00,42.0,33.0,30.34,North,353,4.0,0.0,71,0.00,,,0.00,oem by Ross Wheeler,2013-04-23 12:25:00,
2013-04-23 08:30:00,42.0,33.0,30.34,NNE,13,2.0,0.0,71,0.00,,,0.00,oem by Ross Wheeler,2013-04-23 12:30:00,
2013-04-23 08:40:00,42.3,34.0,30.34,NNE,18,1.0,0.0,71,0.00,,,0.00,oem by Ross Wheeler,2013-04-23 12:40:00,
2013-04-23 08:45:00,42.5,34.0,30.33,NNE,32,3.0,0.0,71,0.00,,,0.00,oem by Ross Wheeler,2013-04-23 12:45:00,
2013-04-23 08:55:00,42.7,34.0,30.33,North,6,3.0,0.0,71,0.00,,,0.00,oem by Ross Wheeler,2013-04-23 12:55:00,
2013-04-23 09:00:00,42.8,34.0,30.33,NNE,15,3.0,0.0,70,0.00,,,0.00,oem by Ross Wheeler,2013-04-23 13:00:00,
2013-04-23 09:10:00,42.8,34.0,30.33,NE,39,0.0,0.0,72,0.00,,,0.00,oem by Ross Wheeler,2013-04-23 13:10:00,
2013-04-23 09:15:00,43.0,35.0,30.33,NE,35,0.0,0.0,72,0.00,,,0.00,oem by Ross Wheeler,2013-04-23 13:15:00,
2013-04-23 09:25:00,43.1,35.0,30.33,North,353,3.0,0.0,73,0.00,,,0.00,oem by Ross Wheeler,2013-04-23 13:25:00,
2013-04-23 09:30:00,43.3,35.0,30.33,NNE,24,2.0,0.0,72,0.00,,,0.00,oem by Ross Wheeler,2013-04-23 13:30:00,
2013-04-23 09:40:00,43.4,35.0,30.33,NE,39,0.0,0.0,73,0.00,,,0.00,oem by Ross Wheeler,2013-04-23 13:40:00,
2013-04-23 09:45:00,43.4,36.0,30.33,ENE,78,3.0,0.0,74,0.00,,,0.00,oem by Ross Wheeler,2013-04-23 13:45:00,
2013-04-23 09:55:00,43.4,36.0,30.33,NNE,17,5.0,0.0,76,0.00,,,0.00,oem by Ross Wheeler,2013-04-23 13:55:00,
2013-04-23 10:00:00,43.3,37.0,30.33,NE,39,0.0,0.0,77,0.00,,,0.00,oem by Ross Wheeler,2013-04-23 14:00:00,
2013-04-23 10:10:00,43.3,38.0,30.33,North,0,1.0,0.0,80,0.00,,,0.00,oem by Ross Wheeler,2013-04-23 14:10:00,
2013-04-23 10:15:00,43.1,38.0,30.33,NE,54,3.0,0.0,82,0.00,,,0.00,oem by Ross Wheeler,2013-04-23 14:15:00,
2013-04-23 10:25:00,42.5,38.0,30.33,NE,37,5.0,0.0,84,0.00,,,0.00,oem by Ross Wheeler,2013-04-23 14:25:00,
2013-04-23 10:30:00,42.4,39.0,30.32,North,4,2.0,0.0,86,0.00,,,0.00,oem by Ross Wheeler,2013-04-23 14:30:00,
2013-04-23 10:40:00,42.4,39.0,30.32,North,4,2.0,0.0,88,0.00,,,0.00,oem by Ross Wheeler,2013-04-23 14:40:00,
2013-04-23 10:45:00,42.4,39.0,30.32,NNE,27,2.0,0.0,88,0.00,,,0.00,oem by Ross Wheeler,2013-04-23 14:45:00,
2013-04-23 10:55:00,42.4,40.0,30.32,NNE,32,2.0,0.0,90,0.00,,,0.00,oem by Ross Wheeler,2013-04-23 14:55:00,
2013-04-23 11:00:00,42.4,40.0,30.31,NNE,17,1.0,0.0,90,0.00,,,0.00,oem by Ross Wheeler,2013-04-23 15:00:00,
2013-04-23 11:10:00,42.3,40.0,30.31,NNE,20,1.0,0.0,90,0.00,,,0.00,oem by Ross Wheeler,2013-04-23 15:10:00,
2013-04-23 11:15:00,42.4,40.0,30.31,NNE,32,1.0,0.0,91,0.00,,,0.00,oem by Ross Wheeler,2013-04-23 15:15:00,
2013-04-23 11:25:00,42.7,40.0,30.31,NNE,28,0.0,0.0,91,0.00,,,0.00,oem by Ross Wheeler,2013-04-23 15:25:00,
2013-04-23 11:30:00,42.7,41.0,30.30,NNE,23,2.0,0.0,92,0.00,,,0.00,oem by Ross Wheeler,2013-04-23 15:30:00,
2013-04-23 11:40:00,43.0,41.0,30.30,NNE,28,0.0,0.0,92,0.00,,,0.00,oem by Ross Wheeler,2013-04-23 15:40:00,
2013-04-23 11:45:00,43.0,41.0,30.30,NNE,14,1.0,0.0,92,0.00,,,0.00,oem by Ross Wheeler,2013-04-23 15:45:00,
2013-04-23 11:55:00,42.7,40.0,30.30,North,356,5.0,0.0,91,0.00,,,0.00,oem by Ross Wheeler,2013-04-23 15:55:00,
2013-04-23 12:00:00,42.7,41.0,30.29,NE,35,2.0,0.0,92,0.00,,,0.00,oem by Ross Wheeler,2013-04-23 16:00:00,
2013-04-23 12:10:00,43.0,41.0,30.29,NNE,13,2.0,0.0,92,0.00,,,0.00,oem by Ross Wheeler,2013-04-23 16:10:00,
2013-04-23 12:15:00,42.8,41.0,30.28,NNE,25,2.0,0.0,92,0.00,,,0.00,oem by Ross Wheeler,2013-04-23 16:15:00,
2013-04-23 12:25:00,43.0,41.0,30.28,NE,37,3.0,0.0,92,0.00,,,0.00,oem by Ross Wheeler,2013-04-23 16:25:00,
2013-04-23 12:30:00,43.0,41.0,30.28,NNE,25,1.0,0.0,91,0.00,,,0.00,oem by Ross Wheeler,2013-04-23 16:30:00,
2013-04-23 12:40:00,43.0,41.0,30.28,NE,44,1.0,0.0,91,0.00,,,0.00,oem by Ross Wheeler,2013-04-23 16:40:00,
2013-04-23 12:45:00,43.0,41.0,30.26,NNE,24,3.0,0.0,91,0.00,,,0.00,oem by Ross Wheeler,2013-04-23 16:45:00,
2013-04-23 12:55:00,43.4,41.0,30.26,NNE,27,0.0,0.0,91,0.00,,,0.00,oem by Ross Wheeler,2013-04-23 16:55:00,
2013-04-23 13:00:00,43.5,41.0,30.25,North,11,2.0,0.0,91,0.00,,,0.00,oem by Ross Wheeler,2013-04-23 17:00:00,
2013-04-23 13:10:00,43.8,41.0,30.25,North,356,3.0,0.0,89,0.00,,,0.00,oem by Ross Wheeler,2013-04-23 17:10:00,
2013-04-23 13:15:00,44.1,41.0,30.24,NNE,28,2.0,0.0,89,0.00,,,0.00,oem by Ross Wheeler,2013-04-23 17:15:00,
2013-04-23 13:25:00,44.6,41.0,30.24,NNE,13,2.0,0.0,88,0.00,,,0.00,oem by Ross Wheeler,2013-04-23 17:25:00,
2013-04-23 13:30:00,44.9,41.0,30.23,NNW,346,0.0,0.0,87,0.00,,,0.00,oem by Ross Wheeler,2013-04-23 17:30:00,
2013-04-23 13:40:00,45.3,41.0,30.23,NE,35,7.0,0.0,86,0.00,,,0.00,oem by Ross Wheeler,2013-04-23 17:40:00,
2013-04-23 13:45:00,45.4,41.0,30.23,NNE,17,5.0,0.0,85,0.00,,,0.00,oem by Ross Wheeler,2013-04-23 17:45:00,
2013-04-23 13:55:00,45.7,41.0,30.23,North,4,1.0,0.0,83,0.00,,,0.00,oem by Ross Wheeler,2013-04-23 17:55:00,
2013-04-23 14:00:00,45.9,41.0,30.22,NNE,25,3.0,0.0,82,0.00,,,0.00,oem by Ross Wheeler,2013-04-23 18:00:00,
2013-04-23 14:10:00,45.9,40.0,30.22,NNE,13,8.0,0.0,81,0.00,,,0.00,oem by Ross Wheeler,2013-04-23 18:10:00,
2013-04-23 14:15:00,46.0,41.0,30.22,North,6,4.0,0.0,81,0.00,,,0.00,oem by Ross Wheeler,2013-04-23 18:15:00,
2013-04-23 14:25:00,46.5,41.0,30.22,North,4,4.0,0.0,81,0.00,,,0.00,oem by Ross Wheeler,2013-04-23 18:25:00,
2013-04-23 14:30:00,46.5,41.0,30.21,NNE,23,0.0,0.0,80,0.00,,,0.00,oem by Ross Wheeler,2013-04-23 18:30:00,
2013-04-23 14:40:00,46.8,41.0,30.21,NNE,30,5.0,0.0,79,0.00,,,0.00,oem by Ross Wheeler,2013-04-23 18:40:00,
2013-04-23 14:45:00,46.8,40.0,30.20,NNE,17,1.0,0.0,78,0.00,,,0.00,oem by Ross Wheeler,2013-04-23 18:45:00,
2013-04-23 14:55:00,46.9,41.0,30.20,North,8,3.0,0.0,79,0.00,,,0.00,oem by Ross Wheeler,2013-04-23 18:55:00,
2013-04-23 15:00:00,47.1,41.0,30.20,North,8,0.0,0.0,78,0.00,,,0.00,oem by Ross Wheeler,2013-04-23 19:00:00,
2013-04-23 15:10:00,47.1,40.0,30.20,North,11,1.0,0.0,77,0.00,,,0.00,oem by Ross Wheeler,2013-04-23 19:10:00,
2013-04-23 15:15:00,47.2,41.0,30.19,NNE,17,3.0,0.0,78,0.00,,,0.00,oem by Ross Wheeler,2013-04-23 19:15:00,
2013-04-23 15:25:00,47.4,41.0,30.19,NNE,32,1.0,0.0,77,0.00,,,0.00,oem by Ross Wheeler,2013-04-23 19:25:00,
2013-04-23 15:30:00,47.5,41.0,30.19,NNE,32,0.0,0.0,77,0.00,,,0.00,oem by Ross Wheeler,2013-04-23 19:30:00,
2013-04-23 15:40:00,47.8,40.0,30.19,North,8,2.0,0.0,75,0.00,,,0.00,oem by Ross Wheeler,2013-04-23 19:40:00,
2013-04-23 15:45:00,48.0,41.0,30.20,North,359,0.0,0.0,76,0.00,,,0.00,oem by Ross Wheeler,2013-04-23 19:45:00,
2013-04-23 15:55:00,48.3,41.0,30.20,North,7,3.0,0.0,75,0.00,,,0.00,oem by Ross Wheeler,2013-04-23 19:55:00,
2013-04-23 16:00:00,48.4,41.0,30.19,NNE,25,2.0,0.0,75,0.00,,,0.00,oem by Ross Wheeler,2013-04-23 20:00:00,
2013-04-23 16:10:00,49.0,41.0,30.19,NNE,14,0.0,0.0,74,0.00,,,0.00,oem by Ross Wheeler,2013-04-23 20:10:00,
2013-04-23 16:15:00,49.3,41.0,30.19,NNE,32,1.0,0.0,73,0.00,,,0.00,oem by Ross Wheeler,2013-04-23 20:15:00,
2013-04-23 16:25:00,49.6,41.0,30.19,NNE,21,0.0,0.0,73,0.00,,,0.00,oem by Ross Wheeler,2013-04-23 20:25:00,
2013-04-23 16:30:00,49.6,41.0,30.19,North,3,3.0,0.0,73,0.00,,,0.00,oem by Ross Wheeler,2013-04-23 20:30:00,
2013-04-23 16:40:00,49.7,41.0,30.19,NE,35,0.0,0.0,72,0.00,,,0.00,oem by Ross Wheeler,2013-04-23 20:40:00,
2013-04-23 16:45:00,49.7,41.0,30.19,NE,39,1.0,0.0,73,0.00,,,0.00,oem by Ross Wheeler,2013-04-23 20:45:00,
2013-04-23 16:55:00,50.0,41.0,30.19,NNW,343,1.0,0.0,72,0.00,,,0.00,oem by Ross Wheeler,2013-04-23 20:55:00,
2013-04-23 17:00:00,50.2,41.0,30.19,North,8,2.0,0.0,72,0.00,,,0.00,oem by Ross Wheeler,2013-04-23 21:00:00,
2013-04-23 17:10:00,50.3,41.0,30.19,NE,34,0.0,0.0,71,0.00,,,0.00,oem by Ross Wheeler,2013-04-23 21:10:00,
2013-04-23 17:15:00,50.5,42.0,30.18,NNW,335,0.0,0.0,72,0.00,,,0.00,oem by Ross Wheeler,2013-04-23 21:15:00,
2013-04-23 17:25:00,50.6,41.0,30.18,NNW,340,1.0,0.0,70,0.00,,,0.00,oem by Ross Wheeler,2013-04-23 21:25:00,
2013-04-23 17:30:00,50.6,41.0,30.17,NNW,337,0.0,0.0,71,0.00,,,0.00,oem by Ross Wheeler,2013-04-23 21:30:00,
2013-04-23 17:40:00,51.1,41.0,30.17,NNE,31,2.0,0.0,69,0.00,,,0.00,oem by Ross Wheeler,2013-04-23 21:40:00,
2013-04-23 17:45:00,51.2,41.0,30.16,NE,48,3.0,0.0,69,0.00,,,0.00,oem by Ross Wheeler,2013-04-23 21:45:00,
2013-04-23 17:55:00,51.4,42.0,30.16,NNE,18,3.0,0.0,69,0.00,,,0.00,oem by Ross Wheeler,2013-04-23 21:55:00,
2013-04-23 18:00:00,51.5,42.0,30.15,NNE,15,0.0,0.0,69,0.00,,,0.00,oem by Ross Wheeler,2013-04-23 22:00:00,
2013-04-23 18:10:00,51.8,41.0,30.15,NNE,18,1.0,0.0,68,0.00,,,0.00,oem by Ross Wheeler,2013-04-23 22:10:00,
2013-04-23 18:15:00,51.7,41.0,30.16,NNE,20,1.0,0.0,68,0.00,,,0.00,oem by Ross Wheeler,2013-04-23 22:15:00,
2013-04-23 18:25:00,51.8,42.0,30.16,NNE,28,3.0,0.0,69,0.00,,,0.00,oem by Ross Wheeler,2013-04-23 22:25:00,
2013-04-23 18:30:00,51.8,42.0,30.15,NNE,14,0.0,0.0,69,0.00,,,0.00,oem by Ross Wheeler,2013-04-23 22:30:00,
2013-04-23 18:40:00,51.8,42.0,30.15,NNE,27,3.0,0.0,69,0.00,,,0.00,oem by Ross Wheeler,2013-04-23 22:40:00,
2013-04-23 18:45:00,51.8,42.0,30.14,NNE,31,0.0,0.0,69,0.00,,,0.00,oem by Ross Wheeler,2013-04-23 22:45:00,
2013-04-23 18:55:00,51.7,42.0,30.14,NNE,25,2.0,0.0,69,0.00,,,0.00,oem by Ross Wheeler,2013-04-23 22:55:00,
2013-04-23 19:00:00,51.7,41.0,30.14,NNE,25,3.0,0.0,68,0.00,,,0.00,oem by Ross Wheeler,2013-04-23 23:00:00,
2013-04-23 19:05:00,51.5,42.0,30.14,NNE,25,2.0,0.0,69,0.00,,,0.00,oem by Ross Wheeler,2013-04-23 23:05:00,
2013-04-23 19:15:00,51.4,42.0,30.13,NNE,21,2.0,0.0,69,0.00,,,0.00,oem by Ross Wheeler,2013-04-23 23:15:00,
2013-04-23 19:25:00,50.9,41.0,30.13,NNE,24,1.0,0.0,69,0.00,,,0.00,oem by Ross Wheeler,2013-04-23 23:25:00,
2013-04-23 19:30:00,50.8,41.0,30.13,NNW,340,1.0,0.0,69,0.00,,,0.00,oem by Ross Wheeler,2013-04-23 23:30:00,
2013-04-23 19:40:00,50.3,41.0,30.13,NNE,24,2.0,0.0,70,0.00,,,0.00,oem by Ross Wheeler,2013-04-23 23:40:00,
2013-04-23 19:45:00,50.2,41.0,30.13,NNE,17,0.0,0.0,71,0.00,,,0.00,oem by Ross Wheeler,2013-04-23 23:45:00,
2013-04-23 19:55:00,49.9,41.0,30.13,NNE,17,0.0,0.0,72,0.00,,,0.00,oem by Ross Wheeler,2013-04-23 23:55:00,
2013-04-23 20:00:00,49.7,41.0,30.11,NNE,27,1.0,0.0,72,0.00,,,0.00,oem by Ross Wheeler,2013-04-24 00:00:00,
2013-04-23 20:10:00,49.3,41.0,30.11,NNE,27,2.0,0.0,72,0.00,,,0.00,oem by Ross Wheeler,2013-04-24 00:10:00,
2013-04-23 20:15:00,49.1,40.0,30.10,NNE,28,2.0,0.0,72,0.00,,,0.00,oem by Ross Wheeler,2013-04-24 00:15:00,
2013-04-23 20:25:00,48.8,40.0,30.10,North,10,3.0,0.0,72,0.00,,,0.00,oem by Ross Wheeler,2013-04-24 00:25:00,
2013-04-23 20:30:00,48.8,40.0,30.09,NNE,24,0.0,0.0,73,0.00,,,0.00,oem by Ross Wheeler,2013-04-24 00:30:00,
2013-04-23 20:40:00,48.7,40.0,30.09,NNE,27,2.0,0.0,73,0.00,,,0.00,oem by Ross Wheeler,2013-04-24 00:40:00,
2013-04-23 20:45:00,48.8,40.0,30.09,NNE,24,3.0,0.0,73,0.00,,,0.00,oem by Ross Wheeler,2013-04-24 00:45:00,
2013-04-23 20:55:00,48.8,40.0,30.09,NNE,23,0.0,0.0,73,0.00,,,0.00,oem by Ross Wheeler,2013-04-24 00:55:00,
2013-04-23 21:00:00,48.8,40.0,30.10,NE,34,0.0,0.0,73,0.00,,,0.00,oem by Ross Wheeler,2013-04-24 01:00:00,
2013-04-23 21:10:00,48.6,40.0,30.10,NNE,14,0.0,0.0,73,0.00,,,0.00,oem by Ross Wheeler,2013-04-24 01:10:00,
2013-04-23 21:15:00,48.4,40.0,30.10,NNE,14,0.0,0.0,74,0.00,,,0.00,oem by Ross Wheeler,2013-04-24 01:15:00,
2013-04-23 21:25:00,48.0,41.0,30.10,NNE,14,0.0,0.0,76,0.00,,,0.00,oem by Ross Wheeler,2013-04-24 01:25:00,
2013-04-23 21:30:00,48.0,41.0,30.11,NNE,14,0.0,0.0,76,0.00,,,0.00,oem by Ross Wheeler,2013-04-24 01:30:00,
2013-04-23 21:40:00,48.3,41.0,30.11,NNE,18,0.0,0.0,76,0.00,,,0.00,oem by Ross Wheeler,2013-04-24 01:40:00,
2013-04-23 21:45:00,48.3,41.0,30.11,NNE,18,0.0,0.0,76,0.00,,,0.00,oem by Ross Wheeler,2013-04-24 01:45:00,
2013-04-23 21:55:00,48.4,41.0,30.11,NNE,18,0.0,0.0,76,0.00,,,0.00,oem by Ross Wheeler,2013-04-24 01:55:00,
2013-04-23 22:00:00,48.4,42.0,30.11,NNE,20,0.0,0.0,77,0.00,,,0.00,oem by Ross Wheeler,2013-04-24 02:00:00,
2013-04-23 22:10:00,48.6,41.0,30.11,NNE,20,0.0,0.0,76,0.00,,,0.00,oem by Ross Wheeler,2013-04-24 02:10:00,
2013-04-23 22:15:00,48.6,41.0,30.10,NNE,20,0.0,0.0,76,0.00,,,0.00,oem by Ross Wheeler,2013-04-24 02:15:00,
2013-04-23 22:25:00,48.6,41.0,30.10,NNE,20,0.0,0.0,75,0.00,,,0.00,oem by Ross Wheeler,2013-04-24 02:25:00,
2013-04-23 22:30:00,48.6,41.0,30.10,NNE,23,0.0,0.0,75,0.00,,,0.00,oem by Ross Wheeler,2013-04-24 02:30:00,
2013-04-23 22:40:00,48.1,41.0,30.10,NNE,23,0.0,0.0,75,0.00,,,0.00,oem by Ross Wheeler,2013-04-24 02:40:00,
2013-04-23 22:45:00,47.8,41.0,30.10,NNE,23,0.0,0.0,76,0.00,,,0.00,oem by Ross Wheeler,2013-04-24 02:45:00,
2013-04-23 22:55:00,47.1,40.0,30.10,NNE,23,0.0,0.0,77,0.00,,,0.00,oem by Ross Wheeler,2013-04-24 02:55:00,
2013-04-23 23:00:00,46.6,40.0,30.08,NW,326,2.0,0.0,78,0.00,,,0.00,oem by Ross Wheeler,2013-04-24 03:00:00,
2013-04-23 23:10:00,46.3,40.0,30.08,WNW,303,0.0,0.0,78,0.00,,,0.00,oem by Ross Wheeler,2013-04-24 03:10:00,
2013-04-23 23:15:00,46.0,40.0,30.09,WNW,303,0.0,0.0,78,0.00,,,0.00,oem by Ross Wheeler,2013-04-24 03:15:00,
2013-04-23 23:25:00,45.7,40.0,30.09,WNW,303,0.0,0.0,80,0.00,,,0.00,oem by Ross Wheeler,2013-04-24 03:25:00,
2013-04-23 23:30:00,45.4,40.0,30.09,WNW,303,1.0,0.0,80,0.00,,,0.00,oem by Ross Wheeler,2013-04-24 03:30:00,
2013-04-23 23:40:00,45.0,40.0,30.09,WNW,303,0.0,0.0,81,0.00,,,0.00,oem by Ross Wheeler,2013-04-24 03:40:00,
2013-04-23 23:45:00,44.9,39.0,30.08,WNW,303,1.0,0.0,81,0.00,,,0.00,oem by Ross Wheeler,2013-04-24 03:45:00,
2013-04-23 23:55:00,44.4,39.0,30.08,WNW,303,0.0,0.0,81,0.00,,,0.00,oem by Ross Wheeler,2013-04-24 03:55:00,